| time (UTC) | temp C | wind direction | speed KPH | gust KPH | rain 1hr cm | rain 24hr cm | rain mn cm | humidity % | barometer mb |
| 20260506142615 | 20 | 0.0 | 0.0 | 0.00 | 0.00 | 0.00 | 72 | 1009.4 | |
| 20260506141615 | 20 | 68 | 1.6 | 4.8 | 0.00 | 0.00 | 0.00 | 71 | 1009.6 |
| 20260506140615 | 20 | 0.0 | 0.0 | 0.00 | 0.00 | 0.00 | 70 | 1009.6 | |
| 20260506135615 | 20 | 0.0 | 3.2 | 0.00 | 0.00 | 0.00 | 72 | 1009.7 | |
| 20260506134656 | 20 | 0.0 | 1.6 | 0.00 | 0.00 | 0.00 | 71 | 1009.8 | |
| 20260506133615 | 20 | 0.0 | 3.2 | 0.00 | 0.00 | 0.00 | 72 | 1009.8 | |
| 20260506132615 | 20 | 0.0 | 0.0 | 0.00 | 0.00 | 0.00 | 73 | 1009.7 | |
| 20260506131615 | 19 | 113 | 1.6 | 8.0 | 0.00 | 0.00 | 0.00 | 73 | 1009.8 |
| 20260506130615 | 19 | 0.0 | 1.6 | 0.00 | 0.00 | 0.00 | 75 | 1009.7 | |
| 20260506125615 | 18 | 0.0 | 1.6 | 0.00 | 0.00 | 0.00 | 74 | 1009.5 | |
| 20260506124615 | 18 | 0.0 | 0.0 | 0.00 | 0.00 | 0.00 | 75 | 1009.3 | |
| 20260506123615 | 18 | 0.0 | 1.6 | 0.00 | 0.00 | 0.00 | 77 | 1009.4 | |
| 20260506122615 | 18 | 0.0 | 1.6 | 0.00 | 0.00 | 0.00 | 77 | 1009.5 | |
| 20260506121615 | 18 | 0.0 | 1.6 | 0.00 | 0.00 | 0.00 | 77 | 1009.7 | |
| 20260506120617 | 18 | 0.0 | 1.6 | 0.00 | 0.00 | 0.00 | 77 | 1009.7 | |
| 20260506115615 | 18 | 45 | 1.6 | 4.8 | 0.00 | 0.00 | 0.00 | 77 | 1010.1 |
| 20260506114617 | 18 | 0.0 | 0.0 | 0.00 | 0.00 | 0.00 | 79 | 1010.0 | |
| 20260506113615 | 18 | 68 | 1.6 | 4.8 | 0.00 | 0.00 | 0.00 | 79 | 1010.1 |
| 20260506112637 | 18 | 0.0 | 0.0 | 0.00 | 0.00 | 0.00 | 79 | 1009.9 | |
| 20260506111617 | 17 | 0.0 | 0.0 | 0.00 | 0.00 | 0.00 | 80 | 1010.0 | |
| 20260506110637 | 17 | 0.0 | 1.6 | 0.00 | 0.03 | 0.00 | 81 | 1009.8 | |
| 20260506105617 | 17 | 0.0 | 0.0 | 0.00 | 0.03 | 0.00 | 82 | 1009.7 | |
| 20260506104617 | 17 | 0.0 | 1.6 | 0.00 | 0.03 | 0.00 | 82 | 1009.7 | |
| 20260506103617 | 17 | 68 | 1.6 | 3.2 | 0.00 | 0.03 | 0.00 | 82 | 1009.8 |
| 20260506102617 | 17 | 0.0 | 3.2 | 0.00 | 0.03 | 0.00 | 82 | 1009.9 | |
| 20260506101617 | 17 | 0.0 | 0.0 | 0.00 | 0.03 | 0.00 | 83 | 1009.7 | |
| 20260506100617 | 16 | 0.0 | 1.6 | 0.00 | 0.03 | 0.00 | 83 | 1009.6 | |
| 20260506095617 | 16 | 0.0 | 1.6 | 0.00 | 0.03 | 0.00 | 84 | 1009.5 | |
| 20260506094617 | 16 | 0.0 | 1.6 | 0.00 | 0.03 | 0.00 | 84 | 1009.5 | |
| 20260506093617 | 16 | 0.0 | 1.6 | 0.00 | 0.03 | 0.00 | 84 | 1009.6 | |
| 20260506092617 | 16 | 0.0 | 0.0 | 0.00 | 0.03 | 0.00 | 84 | 1009.6 | |
| 20260506091637 | 16 | 0.0 | 0.0 | 0.00 | 0.03 | 0.00 | 84 | 1009.6 | |
| 20260506090637 | 16 | 0.0 | 1.6 | 0.00 | 0.03 | 0.00 | 84 | 1009.7 | |
| 20260506085617 | 16 | 0.0 | 0.0 | 0.00 | 0.03 | 0.00 | 83 | 1009.7 | |
| 20260506084617 | 16 | 0.0 | 0.0 | 0.00 | 0.03 | 0.00 | 83 | 1009.8 | |
| 20260506083617 | 16 | 0.0 | 0.0 | 0.00 | 0.03 | 0.00 | 82 | 1009.7 | |
| 20260506082637 | 16 | 0.0 | 1.6 | 0.00 | 0.03 | 0.00 | 82 | 1009.8 | |
| 20260506081617 | 16 | 0.0 | 0.0 | 0.00 | 0.03 | 0.00 | 81 | 1009.9 | |
| 20260506080617 | 17 | 0.0 | 0.0 | 0.00 | 0.03 | 0.00 | 80 | 1009.9 | |
| 20260506072617 | 17 | 0.0 | 1.6 | 0.00 | 0.03 | 0.00 | 78 | 1010.0 | |
| 20260506071637 | 17 | 0.0 | 0.0 | 0.00 | 0.03 | 0.00 | 78 | 1010.0 | |
| 20260506070617 | 17 | 0.0 | 0.0 | 0.00 | 0.03 | 0.00 | 77 | 1010.1 | |
| 20260506061616 | 17 | 0.0 | 4.8 | 0.00 | 0.03 | 0.00 | 74 | 1010.2 | |
| 20260506060637 | 17 | 0.0 | 1.6 | 0.00 | 0.03 | 0.00 | 73 | 1010.1 | |
| 20260506050616 | 18 | 0.0 | 1.6 | 0.00 | 0.03 | 0.00 | 69 | 1010.9 | |
| 20260506044616 | 18 | 0.0 | 3.2 | 0.00 | 0.03 | 0.00 | 68 | 1010.8 | |
| 20260506043617 | 18 | 68 | 1.6 | 3.2 | 0.00 | 0.03 | 0.00 | 67 | 1010.8 |
| 20260506042616 | 19 | 225 | 1.6 | 3.2 | 0.00 | 0.03 | 0.00 | 66 | 1010.8 |
| 20260506041636 | 19 | 0.0 | 1.6 | 0.00 | 0.03 | 0.00 | 65 | 1010.6 | |
| 20260506040617 | 19 | 0.0 | 3.2 | 0.00 | 0.03 | 0.00 | 65 | 1010.6 | |
| 20260506035617 | 19 | 0.0 | 1.6 | 0.00 | 0.03 | 0.03 | 65 | 1010.6 | |
| 20260506034617 | 19 | 0.0 | 0.0 | 0.00 | 0.03 | 0.03 | 64 | 1010.6 | |
| 20260506033617 | 19 | 225 | 3.2 | 6.4 | 0.00 | 0.03 | 0.03 | 64 | 1010.6 |
| 20260506032617 | 20 | 0.0 | 0.0 | 0.00 | 0.03 | 0.03 | 63 | 1010.5 | |
| 20260506031617 | 20 | 0.0 | 1.6 | 0.00 | 0.03 | 0.03 | 62 | 1010.5 | |
| 20260506030637 | 20 | 0.0 | 1.6 | 0.00 | 0.03 | 0.03 | 62 | 1010.4 | |
| 20260506025637 | 20 | 0 | 3.2 | 6.4 | 0.00 | 0.03 | 0.03 | 61 | 1010.3 |
| 20260506024616 | 20 | 0.0 | 1.6 | 0.00 | 0.03 | 0.03 | 61 | 1010.4 | |
| 20260506023616 | 20 | 68 | 1.6 | 6.4 | 0.00 | 0.03 | 0.03 | 60 | 1010.4 |
| 20260506022616 | 21 | 0.0 | 3.2 | 0.00 | 0.03 | 0.03 | 59 | 1010.5 | |
| 20260506021616 | 21 | 0.0 | 1.6 | 0.00 | 0.03 | 0.03 | 57 | 1010.4 | |
| 20260506020616 | 21 | 0.0 | 1.6 | 0.00 | 0.03 | 0.03 | 55 | 1010.4 | |
| 20260506015617 | 21 | 0.0 | 0.0 | 0.00 | 0.03 | 0.03 | 53 | 1010.3 | |
| 20260506014617 | 22 | 0.0 | 3.2 | 0.00 | 0.03 | 0.03 | 51 | 1010.2 | |
| 20260506013616 | 22 | 0.0 | 1.6 | 0.00 | 0.03 | 0.03 | 49 | 1010.1 | |
| 20260506012616 | 22 | 90 | 1.6 | 4.8 | 0.00 | 0.03 | 0.03 | 48 | 1009.9 |
| 20260506011616 | 22 | 0.0 | 1.6 | 0.00 | 0.03 | 0.03 | 47 | 1009.8 | |
| 20260506010616 | 22 | 0.0 | 1.6 | 0.00 | 0.03 | 0.03 | 47 | 1009.6 | |
| 20260506005617 | 23 | 68 | 1.6 | 3.2 | 0.00 | 0.03 | 0.03 | 46 | 1009.6 |
| 20260506004616 | 23 | 0.0 | 3.2 | 0.00 | 0.03 | 0.03 | 45 | 1009.5 | |
| 20260506003616 | 23 | 0.0 | 0.0 | 0.00 | 0.03 | 0.03 | 45 | 1009.5 | |
| 20260506002617 | 23 | 248 | 1.6 | 4.8 | 0.00 | 0.03 | 0.03 | 44 | 1009.4 |
| 20260506001616 | 23 | 0.0 | 0.0 | 0.00 | 0.03 | 0.03 | 43 | 1009.2 | |
| 20260506000616 | 23 | 0.0 | 0.0 | 0.00 | 0.03 | 0.03 | 41 | 1009.2 | |
| 20260505235616 | 23 | 0.0 | 1.6 | 0.00 | 0.03 | 0.03 | 40 | 1009.0 | |
| 20260505234637 | 24 | 68 | 1.6 | 6.4 | 0.00 | 0.03 | 0.03 | 38 | 1009.0 |
| 20260505233616 | 24 | 68 | 3.2 | 8.0 | 0.00 | 0.03 | 0.03 | 38 | 1008.7 |
| 20260505232616 | 25 | 0.0 | 1.6 | 0.00 | 0.03 | 0.03 | 37 | 1008.8 | |
| 20260505231616 | 25 | 0.0 | 0.0 | 0.00 | 0.03 | 0.03 | 36 | 1008.7 | |
| 20260505230616 | 25 | 23 | 1.6 | 4.8 | 0.00 | 0.03 | 0.03 | 35 | 1008.4 |
| 20260505225616 | 25 | 0.0 | 1.6 | 0.00 | 0.03 | 0.03 | 34 | 1008.4 | |
| 20260505224616 | 25 | 23 | 1.6 | 4.8 | 0.00 | 0.03 | 0.03 | 34 | 1008.2 |
| 20260505223616 | 25 | 0.0 | 0.0 | 0.00 | 0.03 | 0.03 | 34 | 1008.1 | |
| 20260505222616 | 26 | 0.0 | 3.2 | 0.00 | 0.03 | 0.03 | 32 | 1008.2 | |
| 20260505221636 | 26 | 45 | 1.6 | 4.8 | 0.00 | 0.03 | 0.03 | 34 | 1008.1 |
| 20260505220616 | 26 | 0.0 | 3.2 | 0.00 | 0.03 | 0.03 | 33 | 1008.1 | |
| 20260505215636 | 26 | 0.0 | 3.2 | 0.00 | 0.03 | 0.03 | 32 | 1007.9 | |
| 20260505214656 | 26 | 0.0 | 3.2 | 0.00 | 0.03 | 0.03 | 32 | 1007.8 | |
| 20260505213616 | 26 | 68 | 1.6 | 8.0 | 0.00 | 0.03 | 0.03 | 32 | 1007.6 |
| 20260505212616 | 26 | 68 | 1.6 | 4.8 | 0.00 | 0.03 | 0.03 | 32 | 1007.7 |
| 20260505211616 | 26 | 0.0 | 1.6 | 0.00 | 0.03 | 0.03 | 33 | 1007.6 | |
| 20260505210657 | 27 | 68 | 1.6 | 8.0 | 0.00 | 0.03 | 0.03 | 32 | 1007.6 |
| 20260505205616 | 27 | 68 | 3.2 | 9.7 | 0.00 | 0.03 | 0.03 | 33 | 1007.7 |
| 20260505204616 | 27 | 23 | 1.6 | 4.8 | 0.00 | 0.03 | 0.03 | 33 | 1007.7 |
| 20260505203616 | 27 | 68 | 1.6 | 4.8 | 0.00 | 0.03 | 0.03 | 31 | 1007.6 |
| 20260505202616 | 28 | 0.0 | 1.6 | 0.00 | 0.03 | 0.03 | 33 | 1007.7 | |
| 20260505201616 | 28 | 68 | 1.6 | 8.0 | 0.00 | 0.03 | 0.03 | 32 | 1007.8 |
| 20260505200636 | 28 | 90 | 4.8 | 9.7 | 0.00 | 0.03 | 0.03 | 32 | 1007.7 |
| 20260505195656 | 28 | 158 | 1.6 | 4.8 | 0.00 | 0.03 | 0.03 | 32 | 1008.1 |
| 20260505194616 | 28 | 68 | 3.2 | 8.0 | 0.00 | 0.03 | 0.03 | 32 | 1008.1 |
| 20260505193616 | 28 | 68 | 1.6 | 4.8 | 0.00 | 0.03 | 0.03 | 33 | 1008.1 |
| 20260505192616 | 28 | 180 | 3.2 | 4.8 | 0.00 | 0.03 | 0.03 | 31 | 1008.4 |
| 20260505191616 | 28 | 113 | 1.6 | 4.8 | 0.00 | 0.03 | 0.03 | 33 | 1008.5 |
| 20260505190616 | 28 | 0.0 | 1.6 | 0.00 | 0.03 | 0.03 | 33 | 1008.6 | |
| 20260505185616 | 28 | 113 | 1.6 | 8.0 | 0.00 | 0.03 | 0.03 | 34 | 1008.8 |
| 20260505184616 | 28 | 90 | 6.4 | 14.5 | 0.00 | 0.03 | 0.03 | 34 | 1009.0 |
| 20260505183616 | 28 | 0.0 | 3.2 | 0.00 | 0.03 | 0.03 | 36 | 1009.1 | |
| 20260505182616 | 28 | 248 | 3.2 | 14.5 | 0.00 | 0.03 | 0.03 | 35 | 1009.3 |
| 20260505181616 | 28 | 293 | 4.8 | 9.7 | 0.00 | 0.03 | 0.03 | 35 | 1009.2 |
| 20260505180616 | 28 | 0 | 1.6 | 9.7 | 0.00 | 0.03 | 0.03 | 39 | 1009.4 |
| 20260505175616 | 27 | 68 | 3.2 | 9.7 | 0.00 | 0.03 | 0.03 | 37 | 1009.2 |
| 20260505174636 | 28 | 68 | 1.6 | 3.2 | 0.00 | 0.03 | 0.03 | 38 | 1009.5 |
| 20260505173616 | 28 | 0.0 | 1.6 | 0.00 | 0.03 | 0.03 | 39 | 1009.5 | |
| 20260505172616 | 27 | 90 | 1.6 | 3.2 | 0.00 | 0.03 | 0.03 | 41 | 1009.5 |
| 20260505171615 | 27 | 135 | 3.2 | 17.7 | 0.00 | 0.03 | 0.03 | 39 | 1009.7 |
| 20260505170616 | 28 | 135 | 1.6 | 3.2 | 0.00 | 0.03 | 0.03 | 39 | 1009.8 |
| 20260505165616 | 28 | 0.0 | 3.2 | 0.00 | 0.03 | 0.03 | 40 | 1010.0 | |
| 20260505164636 | 28 | 45 | 3.2 | 6.4 | 0.00 | 0.03 | 0.03 | 40 | 1010.0 |
| 20260505163616 | 27 | 0.0 | 1.6 | 0.00 | 0.03 | 0.03 | 42 | 1010.3 | |
| 20260505162616 | 27 | 0.0 | 1.6 | 0.00 | 0.03 | 0.03 | 42 | 1010.4 | |
| 20260505161616 | 27 | 90 | 4.8 | 9.7 | 0.00 | 0.03 | 0.03 | 41 | 1010.5 |
| 20260505160616 | 26 | 0.0 | 1.6 | 0.00 | 0.03 | 0.03 | 44 | 1010.6 | |
| 20260505152616 | 25 | 135 | 1.6 | 6.4 | 0.00 | 0.03 | 0.03 | 48 | 1011.0 |
| 20260505151616 | 24 | 0.0 | 3.2 | 0.00 | 0.03 | 0.03 | 48 | 1011.1 | |
| 20260505150615 | 24 | 113 | 1.6 | 9.7 | 0.00 | 0.03 | 0.03 | 51 | 1011.2 |